Weather History for Port Angeles, WA

Change the Weather History Date:

Monday, October 28, 2013

  Actual Average Record
Temperature  
Mean Temperature 48 °F -  
Max Temperature 57 °F 53 °F 64 °F (1962)
Min Temperature 39 °F 40 °F 30 °F (1971)
Degree Days  
Heating Degree Days 17    
Moisture  
Dew Point 31 °F    
Average Humidity 51    
Maximum Humidity 71    
Minimum Humidity 33    
Precipitation  
Precipitation 0.00 in - - ()
Sea Level Pressure  
Sea Level Pressure 30.01 in    
Wind  
Wind Speed 7 mph (SE)    
Max Wind Speed 13 mph    
Max Gust Speed 21 mph    
Visibility 10 miles    
Events Rain    
Averages and records for this station are not official NWS values.
T = Trace of Precipitation, MM = Missing Value Source: NWS Daily Summary

Daily Weather History Graph

Daily Weather History Graph

Search for Another Location

Airport:

Trip Planner

Search our weather history database for the weather conditions in past years. The results will help you decide how hot, cold, wet, or windy it might be!

Date:

Astronomy

Oct. 28, 2013 Rise Set
Actual Time 7:53 AM PDT 6:01 PM PDT
Civil Twilight 7:21 AM PDT 6:33 PM PDT
Nautical Twilight 6:44 AM PDT 7:09 PM PDT
Astronomical Twilight 6:08 AM PDT 7:45 PM PDT
Moon 1:25 AM PDT (10/28) 3:09 PM PDT (10/28)
Length of Visible Light 11h 12m
Length of Day
10h 07m
Waning Crescent, 33% of the Moon is Illuminated
Oct 28
Waning Crescent
Nov 3
New
Nov 9
First Quarter
Nov 17
Full
Nov 25
Last Quarter

Hourly Weather History & Observations

Time (PDT) Temp. Windchill Dew Point Humidity Pressure Visibility Wind Dir Wind Speed Gust Speed Precip Events Conditions
12:53 AM 51.1 °F - 34.0 °F 52% 30.03 in 10.0 mi SE 6.9 mph - N/A   Clear
1:53 AM 46.9 °F - 35.1 °F 63% 30.03 in 10.0 mi SE 4.6 mph - N/A   Clear
2:53 AM 45.0 °F - 36.0 °F 71% 30.04 in 10.0 mi Calm Calm - N/A   Clear
3:53 AM 50.0 °F - 32.0 °F 50% 30.04 in 10.0 mi ESE 4.6 mph - N/A   Clear
4:53 AM 48.0 °F - 33.1 °F 56% 30.04 in 10.0 mi ESE 9.2 mph - N/A   Clear
5:53 AM 46.9 °F - 33.1 °F 59% 30.04 in 10.0 mi ESE 8.1 mph - N/A   Clear
6:53 AM 50.0 °F - 30.0 °F 46% 30.04 in 10.0 mi ESE 11.5 mph 19.6 mph N/A   Clear
7:53 AM 51.1 °F - 28.9 °F 43% 30.04 in 10.0 mi ESE 12.7 mph - 0.00 in Rain Light Rain
8:53 AM 50.0 °F - 30.9 °F 48% 30.05 in 10.0 mi ESE 10.4 mph - 0.00 in   Clear
9:53 AM 53.1 °F - 30.0 °F 41% 30.05 in 10.0 mi East 12.7 mph 20.7 mph 0.00 in Rain Light Rain
10:53 AM 54.0 °F - 30.0 °F 40% 30.05 in 10.0 mi East 10.4 mph - 0.00 in   Clear
11:53 AM 55.0 °F - 30.9 °F 40% 30.04 in 10.0 mi ESE 11.5 mph - 0.00 in   Clear
12:53 PM 55.0 °F - 30.9 °F 40% 30.02 in 10.0 mi SE 9.2 mph - N/A   Clear
1:53 PM 55.9 °F - 28.9 °F 36% 30.00 in 10.0 mi SE 9.2 mph - N/A   Clear
2:53 PM 57.0 °F - 28.0 °F 33% 29.99 in 10.0 mi North - - N/A   Clear
3:53 PM 55.9 °F - 28.9 °F 36% 29.98 in 10.0 mi SE 9.2 mph - N/A   Clear
4:53 PM 55.0 °F - 28.9 °F 37% 29.96 in 10.0 mi South 5.8 mph - N/A   Clear
5:53 PM 48.9 °F - 30.0 °F 48% 29.96 in 10.0 mi SSE 4.6 mph - N/A   Clear
6:53 PM 43.0 °F 39.5 °F 34.0 °F 71% 29.97 in 10.0 mi SW 5.8 mph - N/A   Clear
7:53 PM 41.0 °F 38.0 °F 32.0 °F 70% 29.98 in 10.0 mi South 4.6 mph - N/A   Clear
8:53 PM 39.9 °F 37.8 °F 30.9 °F 70% 29.98 in 10.0 mi Variable 3.5 mph - N/A   Clear
9:53 PM 42.1 °F 36.6 °F 30.0 °F 62% 29.98 in 10.0 mi SW 9.2 mph - N/A   Clear
10:53 PM 43.0 °F 37.2 °F 30.0 °F 60% 29.98 in 10.0 mi SW 10.4 mph - N/A   Clear
11:53 PM 42.1 °F 36.6 °F 30.0 °F 62% 29.99 in 10.0 mi SW 9.2 mph - N/A   Clear